Theta_e
312 312 311 312 311 314 319 317 319 319 318 321 321 319 316 318 320 318 318 319 316 328 344 345 343 340 341 346 348 347 347 350 348 349 353 349 346 347 342 343 345 344 344 339 336 337 336 333 330 329 328 329 327 323 322 322 320 317 316 317 317 319 321 324 328 330 331 331 331 329 329 328 326 325 321 320 319 317 315 313 314 313 318 318 313 314 313 315 320 322 320 320 321 322 323 323 322
312 311 311 312 313 316 319 317 321 322 319 318 318 319 319 319 320 318 318 319 317 328 343 346 345 344 344 345 344 344 345 346 344 346 349 346 346 345 341 343 343 342 342 336 335 336 336 333 330 329 329 330 328 325 325 325 323 319 317 316 315 316 320 324 326 328 330 329 328 328 329 331 330 326 320 318 317 316 315 314 314 313 316 317 314 314 318 321 322 322 320 320 320 321 325 327 326
311 311 311 314 315 317 319 317 321 322 320 317 315 318 317 317 318 317 318 318 318 320 330 342 347 344 346 350 348 344 346 345 345 347 346 345 345 343 342 342 341 341 338 334 334 335 335 332 331 329 329 330 329 328 327 326 324 321 319 317 316 315 317 323 325 328 332 331 329 325 326 327 324 319 316 316 316 316 315 314 313 313 313 314 314 315 321 324 325 326 326 324 321 321 323 325 327
310 311 313 316 317 318 322 322 324 324 321 318 316 316 316 317 318 317 317 318 320 319 322 338 349 346 349 356 351 346 347 346 346 347 345 345 345 343 343 341 341 339 334 332 333 335 335 332 331 330 329 330 330 329 328 327 326 323 321 319 318 316 315 317 321 324 328 331 329 325 327 328 324 317 316 315 315 316 316 315 313 313 313 312 314 316 320 323 324 327 327 325 324 324 321 322 325
311 313 315 317 319 320 323 322 323 321 317 319 317 316 319 319 319 319 319 319 321 323 323 338 352 347 348 352 348 348 348 347 347 346 346 346 344 343 344 341 339 336 332 332 333 335 335 333 331 330 329 330 330 330 329 328 327 326 325 323 322 321 320 321 325 324 323 328 326 326 330 332 330 321 315 315 315 316 316 316 314 312 312 312 312 315 317 318 321 323 324 324 324 323 320 323 324
313 316 317 318 318 318 321 321 322 320 316 318 318 318 320 319 318 318 319 319 321 332 335 341 350 347 348 349 347 348 348 348 348 347 346 346 344 343 343 342 338 334 332 332 333 335 335 334 332 331 330 330 330 330 330 329 328 328 327 327 326 325 324 326 330 329 328 329 324 324 328 330 329 321 315 315 315 315 316 318 316 312 311 312 312 312 313 313 316 320 322 323 322 321 320 322 324
315 318 319 319 317 316 322 325 324 322 319 319 319 320 318 317 317 317 319 318 322 336 344 345 346 348 351 349 348 348 348 349 348 348 347 346 345 343 342 341 337 332 332 333 334 335 335 334 332 332 330 330 330 330 330 329 329 328 328 328 328 324 324 327 328 330 331 329 326 328 328 325 323 317 315 315 315 315 315 318 317 313 311 312 312 312 312 313 315 317 320 321 322 321 319 320 323
316 318 317 320 320 316 322 324 321 320 320 319 318 319 318 318 317 317 319 318 320 323 337 347 344 350 352 348 349 349 348 348 348 349 348 347 345 343 341 339 335 332 332 334 335 335 335 334 332 331 331 330 329 330 330 330 329 329 328 328 327 322 323 327 324 324 327 325 327 332 329 326 324 319 317 316 316 316 316 317 317 314 311 311 311 311 312 314 316 318 320 322 324 321 317 318 322
316 317 314 319 320 317 321 320 318 317 318 318 315 316 315 316 315 316 317 317 318 319 336 347 343 350 351 347 349 348 348 348 348 350 349 349 347 343 340 337 334 332 332 334 335 336 336 335 332 331 331 330 329 329 330 331 330 329 328 327 326 320 319 322 320 319 320 320 323 328 327 325 326 321 317 317 317 317 317 316 316 316 314 312 311 311 313 315 317 319 322 323 324 322 317 317 321
316 315 314 319 319 317 319 317 316 316 316 315 313 314 313 314 314 313 314 315 315 323 344 346 343 349 348 348 348 348 348 348 349 349 349 349 348 344 339 336 334 332 332 334 336 336 336 336 333 332 331 330 329 329 329 331 331 330 328 326 323 320 318 319 321 322 321 321 320 322 322 321 321 319 316 317 316 316 316 316 315 316 315 314 311 312 314 317 319 321 324 324 324 322 319 317 321
315 313 314 321 322 318 318 317 317 316 315 314 314 314 314 315 313 313 313 315 318 329 345 347 346 348 347 348 347 347 348 348 349 349 349 350 348 344 338 335 333 331 332 334 336 336 336 336 335 332 331 331 330 329 329 331 332 331 329 325 322 319 319 320 322 324 324 323 321 320 320 317 317 317 317 319 318 316 316 316 315 315 315 315 313 312 315 318 320 323 324 323 322 322 320 319 320
313 314 319 324 323 318 318 319 318 318 316 316 317 314 315 313 313 319 313 316 331 341 346 345 347 347 348 349 346 346 347 347 348 348 349 349 346 341 336 334 332 332 332 334 336 337 337 337 336 334 331 330 330 330 330 331 332 332 329 324 321 320 321 323 325 326 326 324 321 321 320 319 318 319 321 323 322 319 319 318 317 317 316 315 314 313 316 320 322 324 324 321 320 320 321 320 321
313 314 321 321 319 319 318 318 318 320 319 317 316 314 315 311 320 326 318 325 342 346 345 344 345 346 348 348 346 346 346 347 347 348 348 346 342 337 335 333 332 332 332 334 336 337 337 337 337 335 333 330 330 331 331 332 332 333 329 323 322 322 324 326 328 330 331 328 325 324 324 324 324 324 326 327 327 325 324 321 319 320 318 315 315 314 316 321 324 325 324 322 321 321 321 321 321
314 313 319 318 315 318 316 316 317 317 318 317 313 314 313 313 329 333 331 342 345 343 343 343 343 346 349 348 347 346 345 346 346 346 345 342 339 335 334 333 333 333 332 334 335 336 336 337 337 336 335 331 329 330 331 332 332 333 329 323 322 324 326 328 330 332 333 332 331 330 330 328 328 329 330 330 330 328 327 325 322 321 320 317 315 315 315 319 325 327 327 325 323 323 322 322 322
314 313 320 319 315 316 314 315 316 314 316 316 312 314 311 317 339 341 339 346 345 344 344 343 343 345 349 347 346 346 344 345 345 345 342 339 337 334 335 333 334 334 333 334 334 335 336 337 337 337 336 333 331 331 331 331 332 333 328 323 324 325 327 329 330 332 333 333 333 333 332 332 331 331 331 331 330 330 329 327 325 323 322 320 317 315 315 318 325 329 329 328 326 326 325 323 324
314 314 318 318 317 316 314 314 314 315 317 316 312 313 312 317 337 344 341 343 345 345 345 344 344 342 344 345 346 346 346 344 343 343 339 338 337 335 336 335 336 336 334 334 334 334 336 336 336 337 336 335 334 332 331 331 332 333 328 323 325 327 328 330 330 331 333 333 333 333 333 334 333 333 332 332 331 331 330 328 326 324 322 321 320 317 315 316 323 329 330 330 328 328 328 326 326
314 316 320 317 316 316 314 315 315 316 317 315 313 311 313 314 324 341 344 342 345 344 344 345 343 342 343 344 346 346 347 345 343 341 338 338 336 336 337 336 336 335 334 334 334 335 335 335 334 335 336 336 335 334 333 331 332 333 328 324 326 328 329 330 330 331 332 333 333 333 333 334 334 333 332 331 331 330 330 329 326 324 323 322 321 319 317 315 320 328 331 331 330 330 330 328 327
314 318 320 317 315 315 315 317 315 314 315 313 312 311 313 313 313 331 345 344 343 343 343 344 344 344 345 345 345 346 347 345 342 340 338 338 336 336 336 336 335 335 335 335 334 333 332 331 331 332 334 336 336 335 334 332 332 333 328 325 327 328 329 331 330 331 332 333 333 333 333 333 334 333 331 330 329 329 330 329 327 325 324 323 322 321 319 316 317 322 327 330 331 331 331 331 327
316 316 316 316 316 313 312 314 312 311 313 311 312 312 312 314 312 326 347 345 343 346 344 343 345 346 346 346 345 346 347 345 344 341 340 339 337 336 336 336 336 336 337 335 333 330 327 327 329 331 333 334 335 335 335 333 332 332 327 324 328 329 330 331 330 331 332 333 332 332 332 332 334 332 329 328 327 329 329 327 327 325 324 323 322 322 321 318 316 316 319 324 330 332 332 332 329
315 314 317 317 314 312 310 311 312 312 312 310 311 312 312 314 317 331 347 344 344 347 344 343 345 347 346 346 346 346 346 345 344 343 341 339 337 336 336 337 336 336 337 334 331 328 325 325 327 330 331 333 335 335 335 333 332 331 326 325 329 330 331 331 331 331 331 331 330 330 330 331 333 330 329 329 328 328 326 325 325 323 323 321 320 321 321 320 318 316 316 319 327 332 332 332 330
314 315 319 316 311 312 313 311 313 313 312 312 311 312 313 312 321 337 344 344 349 346 341 343 344 346 346 345 346 345 345 344 343 343 341 339 337 337 337 338 337 336 336 333 330 328 326 325 326 328 329 331 334 335 335 333 332 331 327 327 330 330 331 331 331 329 327 327 327 328 329 330 330 328 328 328 326 325 324 324 323 322 321 320 319 319 319 320 320 318 316 316 322 329 330 332 332
314 315 315 313 311 312 313 313 315 315 312 312 311 313 313 313 321 336 342 342 346 342 339 342 343 345 345 345 346 344 345 344 342 342 342 340 338 338 337 337 337 336 336 334 333 331 329 327 327 327 328 330 332 334 334 332 332 331 327 327 330 330 331 332 330 327 325 326 326 328 328 329 328 327 326 326 324 324 324 323 322 322 321 320 320 319 319 319 319 319 318 316 317 323 328 331 332
315 317 313 313 314 312 314 315 317 315 312 311 312 313 311 313 315 324 338 339 334 336 337 340 343 345 345 346 345 344 344 343 343 343 343 342 339 336 336 336 337 336 335 334 333 331 330 329 329 329 328 329 331 334 334 332 332 330 326 327 330 330 331 332 329 327 327 327 327 327 327 328 327 327 326 326 325 324 323 322 321 321 320 320 319 319 319 318 318 319 319 317 315 318 325 331 331
316 318 314 314 315 313 315 316 316 315 313 312 313 312 310 312 311 316 329 332 331 334 338 340 343 345 345 346 346 344 344 344 343 344 344 344 341 335 336 337 336 336 335 332 332 331 331 331 331 330 330 329 330 333 333 332 332 329 326 328 330 330 332 332 329 328 328 327 327 327 328 329 328 327 327 327 325 324 323 322 321 320 320 320 319 318 318 318 318 318 319 319 316 318 325 331 330
315 317 314 315 316 315 316 315 315 315 313 313 312 311 311 311 311 315 319 322 331 337 339 341 342 344 346 345 346 345 344 344 343 343 344 344 342 337 338 339 336 336 335 333 332 332 333 332 331 330 330 329 330 332 333 333 332 329 326 328 330 330 332 331 328 328 328 327 327 327 328 329 328 327 327 327 326 325 324 322 320 321 323 323 320 319 319 319 318 319 320 321 320 320 327 331 330
315 316 314 315 315 315 315 313 313 313 312 312 311 312 312 312 312 315 318 323 334 341 341 342 342 344 346 345 346 345 345 344 343 343 344 344 342 339 340 340 335 335 335 335 333 332 333 332 331 330 330 330 331 332 333 332 332 329 327 328 330 330 331 330 327 328 328 328 329 328 328 328 327 327 327 328 327 326 325 325 323 323 326 326 323 322 322 320 319 320 322 323 323 324 328 330 329
315 314 313 314 313 312 312 311 313 312 311 312 311 313 311 311 312 314 325 335 338 342 343 342 342 344 345 345 345 345 345 343 342 343 344 344 343 341 341 340 335 334 335 335 335 332 332 333 332 331 330 331 331 332 332 332 331 330 329 328 329 330 331 328 327 328 328 329 330 329 328 327 327 328 328 328 327 327 327 327 327 326 327 328 326 325 324 323 322 322 324 324 325 325 327 330 329
313 312 311 312 309 310 311 310 312 311 312 313 311 313 311 310 314 312 327 340 341 342 343 343 342 343 343 344 344 344 344 343 342 343 344 343 342 341 341 340 336 334 335 336 336 333 332 333 332 332 331 331 332 331 332 331 330 330 329 329 329 330 331 327 326 329 329 330 331 330 328 328 328 328 328 328 327 328 327 327 328 327 327 327 327 327 326 326 325 325 326 326 326 326 326 328 329
312 311 311 313 312 312 311 310 312 310 312 314 311 313 314 315 315 312 326 340 343 342 342 343 342 342 342 343 343 343 343 342 343 343 343 343 341 340 338 339 338 336 336 336 336 334 332 332 333 334 333 333 332 333 333 331 330 330 329 329 328 330 330 326 326 329 330 330 331 330 329 328 327 328 328 327 327 328 328 327 327 327 327 327 326 327 327 327 327 327 328 328 328 328 327 326 326
311 311 311 313 314 315 311 308 310 310 311 313 312 313 318 322 313 315 335 342 343 343 342 343 342 342 342 342 342 342 342 342 343 343 343 343 342 342 339 338 338 337 337 337 337 335 333 333 334 334 334 334 334 334 333 330 329 329 329 329 328 330 328 324 326 330 330 330 331 330 329 326 324 326 328 327 327 327 328 328 327 327 328 327 326 327 328 328 327 328 329 329 329 329 328 327 326
313 311 311 312 312 317 313 308 310 312 312 311 312 313 318 323 311 321 344 343 342 343 342 343 342 342 341 341 341 340 342 342 343 343 343 344 343 342 340 338 337 337 338 338 337 336 334 333 334 334 335 336 335 334 333 330 328 328 330 329 329 330 327 325 328 329 330 331 330 328 327 326 324 324 327 328 327 328 328 327 327 327 327 327 326 327 328 328 328 329 329 330 329 329 329 329 327
316 311 315 316 311 315 315 310 311 313 313 311 312 315 316 320 311 321 345 344 342 343 342 344 342 342 342 340 340 340 341 342 343 344 343 343 343 342 340 338 338 338 338 338 338 337 335 334 333 334 334 335 335 334 333 330 328 328 330 330 330 329 327 327 328 328 330 330 328 326 326 327 326 324 326 326 327 329 328 327 327 326 326 326 326 327 328 328 328 328 328 329 329 328 328 328 327
320 313 315 319 313 313 315 311 309 308 312 311 312 314 315 319 310 316 341 345 342 343 342 344 342 342 343 340 340 340 341 341 342 344 343 343 343 342 340 339 339 338 338 338 338 337 336 335 334 333 333 333 334 333 333 331 329 329 330 330 330 328 326 327 327 329 330 327 325 325 327 328 326 325 325 324 326 328 328 327 327 326 326 326 326 327 328 327 327 327 327 328 328 327 327 327 327
321 315 314 318 315 313 314 313 310 307 311 312 312 314 314 319 311 313 337 346 341 343 342 342 343 343 343 341 341 341 341 341 341 343 342 342 342 340 339 338 337 338 338 338 337 336 335 335 335 334 333 333 333 333 333 332 331 331 330 330 330 327 326 327 327 330 329 325 324 326 328 328 326 326 325 324 325 327 327 327 327 326 326 327 326 326 327 327 327 327 327 328 328 327 326 326 326
318 315 314 317 316 313 313 314 312 310 312 313 312 314 315 318 314 309 327 343 342 342 342 342 343 343 344 342 341 341 342 341 341 341 342 342 339 338 338 337 336 337 338 338 337 336 335 335 335 335 335 335 334 334 333 332 332 331 330 330 329 327 327 327 327 328 326 324 326 328 328 328 326 326 325 325 326 326 326 327 327 326 327 327 326 326 326 326 327 327 327 327 327 327 326 327 328
315 314 316 317 314 312 312 312 312 311 311 313 313 315 316 316 317 310 316 336 342 340 342 343 342 343 343 343 342 341 341 342 341 340 342 342 337 335 337 336 336 337 338 337 336 336 336 336 335 335 336 336 335 334 332 331 332 331 329 329 327 326 327 326 325 326 327 326 327 328 328 327 327 326 326 326 326 326 327 327 327 327 327 327 327 326 326 327 328 327 327 327 326 326 327 328 328
312 313 314 313 312 311 310 311 313 311 311 317 316 316 317 315 318 313 308 326 339 338 342 343 343 343 342 343 342 341 341 341 341 340 341 342 338 335 336 336 337 337 337 337 336 336 336 335 334 335 336 335 334 334 332 332 331 329 328 327 326 326 326 325 326 328 327 327 327 328 328 327 327 326 326 326 326 327 328 327 326 327 328 328 327 327 327 327 328 328 327 326 326 326 327 328 328
311 312 313 312 312 311 310 310 312 311 312 319 319 315 316 316 317 315 310 324 337 337 341 343 342 343 341 342 342 341 341 341 340 340 341 342 339 336 336 336 337 337 336 336 336 335 335 334 333 334 335 334 334 333 332 332 330 327 327 328 326 325 325 326 328 328 326 326 326 326 326 326 326 326 326 326 327 328 328 327 326 327 328 328 328 328 327 327 327 328 327 326 327 327 327 328 328
313 312 313 313 312 311 312 313 312 312 313 319 320 315 316 316 315 316 314 323 334 337 340 341 341 342 341 341 341 340 340 339 339 340 341 342 340 337 336 336 336 336 336 336 335 334 334 334 334 334 334 334 333 331 330 330 327 326 327 327 325 325 326 328 329 327 325 325 325 325 326 327 327 326 326 327 327 328 328 328 327 327 328 328 329 328 327 327 327 328 327 326 327 327 327 327 328
314 313 313 313 312 311 315 317 316 315 313 315 317 315 317 317 318 320 315 317 328 336 338 340 340 340 340 340 339 339 339 338 339 341 342 341 339 337 335 335 335 335 336 336 334 333 333 334 333 332 333 332 331 329 328 327 326 325 326 326 327 327 327 327 326 325 325 326 326 327 328 328 327 326 325 326 326 327 327 328 328 328 328 328 328 327 327 326 326 328 327 326 326 326 327 327 327
318 316 313 312 311 311 313 314 316 318 318 317 315 317 323 323 323 324 318 318 327 334 337 340 340 339 339 339 338 339 339 338 340 342 341 340 339 337 335 335 335 336 336 335 333 331 332 333 332 330 331 331 329 327 326 326 326 325 326 327 328 327 326 325 325 326 326 327 328 327 327 326 325 324 324 325 326 327 327 327 327 327 327 327 327 327 327 326 326 327 328 327 327 326 326 327 327
319 318 314 312 312 312 313 311 313 318 321 318 314 318 327 327 324 323 323 326 332 335 337 339 339 339 338 339 338 338 338 338 341 342 340 338 338 336 335 335 335 336 335 333 332 330 332 332 330 329 329 328 326 326 326 326 326 326 327 328 327 325 325 325 325 326 326 326 327 326 325 325 324 324 324 325 326 326 326 327 327 326 326 326 326 326 327 326 326 327 328 328 327 327 327 327 327
315 318 317 313 311 312 313 312 313 317 320 318 315 317 321 323 323 320 324 332 336 336 338 339 339 339 338 338 338 338 338 338 339 340 338 336 336 335 335 335 336 335 334 333 331 330 331 331 328 328 327 326 326 326 326 326 327 327 327 326 325 324 324 323 324 325 325 325 325 325 325 325 325 325 325 325 325 325 326 327 326 325 326 326 326 326 326 326 326 327 328 328 328 328 328 327 327
315 318 318 314 312 312 312 312 314 318 319 320 322 318 316 320 320 319 325 334 337 337 338 338 339 339 338 338 337 338 338 338 338 337 336 335 335 334 334 335 336 334 333 332 330 330 330 328 327 327 326 325 325 325 326 326 327 327 326 324 324 323 322 322 324 325 324 325 325 325 325 325 325 324 324 324 325 325 326 326 325 325 326 326 326 326 325 325 326 327 328 328 328 328 328 328 328
316 317 315 314 313 312 312 313 315 318 315 319 325 318 314 322 325 324 331 336 335 336 337 337 339 338 338 337 337 338 337 337 337 336 335 335 333 334 335 336 335 333 333 331 329 329 328 326 326 326 325 325 325 324 325 326 326 325 324 324 323 322 321 322 323 324 325 325 325 324 324 324 324 324 324 324 324 325 325 326 325 324 324 325 325 325 324 324 326 327 327 327 327 327 327 327 328
314 315 313 313 314 314 314 315 316 316 315 317 324 319 314 321 329 330 335 338 334 335 336 336 339 338 337 337 336 336 336 336 336 334 334 333 333 334 335 336 335 333 332 331 328 328 327 326 326 325 325 325 324 325 325 325 325 324 323 323 322 320 320 321 322 322 322 323 323 323 323 322 321 321 323 324 324 324 325 325 325 325 325 325 325 325 325 325 325 326 326 326 326 326 326 326 327
310 311 312 313 316 317 319 321 318 314 317 318 320 321 316 317 328 332 335 337 333 334 337 337 338 338 337 336 335 335 335 335 334 333 332 331 332 334 335 336 335 333 332 330 328 327 327 327 326 326 325 324 324 324 325 325 324 323 323 323 321 320 320 319 318 317 316 317 318 318 318 317 317 317 319 320 321 323 324 323 323 324 324 324 325 324 324 325 325 325 325 325 326 326 325 326 326
309 313 315 314 318 318 319 323 319 314 319 321 319 320 315 316 328 331 332 334 329 329 335 337 337 338 336 336 335 334 335 334 333 333 331 330 333 335 335 336 334 333 332 330 327 327 327 327 326 325 324 323 323 324 324 324 323 323 324 324 322 319 319 317 315 313 314 316 316 316 315 315 315 316 317 317 317 320 322 323 322 322 322 323 324 324 324 324 324 324 325 325 325 325 324 325 326
308 314 315 314 316 316 317 320 318 316 319 319 320 318 314 318 326 328 332 334 328 325 328 333 336 337 336 335 334 334 334 333 332 333 332 330 333 335 335 336 335 333 332 329 327 327 327 326 325 324 323 323 323 324 324 323 323 324 325 325 322 319 319 318 315 314 316 317 318 318 317 316 316 317 317 318 317 317 318 319 321 321 321 322 323 322 323 323 323 324 324 324 325 324 324 325 325
308 312 315 315 316 315 317 319 316 317 318 315 316 317 319 324 324 326 330 329 325 324 323 327 333 336 336 335 333 333 333 333 333 333 332 331 332 334 334 335 335 333 332 330 328 328 327 325 325 324 323 323 323 323 323 323 324 324 326 326 323 319 318 318 317 316 315 318 320 320 318 317 318 319 319 319 318 317 316 315 318 320 321 322 322 320 320 321 323 324 324 325 325 325 324 324 325
309 311 313 315 319 318 319 320 316 316 317 315 314 315 323 330 325 324 327 323 323 326 325 327 333 335 336 334 333 333 333 333 333 333 333 331 332 333 334 335 334 333 332 330 328 328 328 326 325 324 324 324 324 323 324 325 325 325 326 326 322 319 319 318 318 316 315 318 321 320 319 319 319 320 319 318 318 317 315 314 315 319 321 323 322 321 320 320 321 323 324 324 325 325 324 323 323
311 311 312 313 319 322 319 318 318 319 319 318 318 318 324 329 325 323 326 326 326 327 326 329 334 335 334 333 333 333 333 334 333 333 333 332 332 333 334 335 333 333 332 330 328 328 328 327 325 325 324 325 324 324 325 325 325 324 324 323 321 320 319 317 315 315 316 318 319 319 319 320 320 321 320 318 317 317 316 315 317 319 321 322 323 322 321 320 320 322 323 323 324 324 324 322 321
314 311 313 313 313 319 320 315 315 318 318 320 324 328 329 328 325 325 329 331 329 327 329 331 332 333 333 332 332 332 333 334 334 334 333 332 332 332 334 335 333 332 331 329 328 328 328 326 325 325 325 326 325 324 325 324 322 322 322 322 322 319 315 313 312 312 314 316 317 318 319 320 320 321 320 318 318 317 315 315 316 316 317 319 320 321 320 320 321 322 323 323 323 322 321 320 320
316 313 314 313 310 317 323 321 320 319 317 324 328 329 331 331 327 328 331 332 329 328 330 329 329 331 331 331 332 333 333 334 335 335 333 332 332 332 333 333 332 331 329 328 328 328 328 325 324 325 326 326 325 325 325 322 320 321 322 323 321 315 310 310 312 312 313 315 317 318 318 318 319 320 319 319 318 317 315 314 314 313 315 317 319 320 320 320 321 320 321 321 320 319 318 319 321
313 316 313 313 315 318 319 319 322 319 318 327 329 324 326 332 330 328 329 330 328 328 329 329 329 329 329 330 331 332 333 333 333 334 333 332 332 332 332 332 332 331 328 328 328 329 329 327 325 326 327 326 325 325 324 321 320 323 325 325 321 314 309 311 313 313 314 315 317 318 316 317 319 318 317 318 317 315 314 313 311 313 318 319 320 321 320 321 320 319 319 319 318 318 319 320 322
310 313 311 315 321 321 317 317 320 319 320 327 328 325 329 331 326 323 324 326 327 327 327 328 328 327 327 329 330 331 332 331 333 334 333 332 333 333 332 331 332 330 329 329 329 329 330 329 326 327 327 326 325 325 323 321 322 325 326 325 322 315 311 313 315 315 315 316 317 318 316 316 316 316 315 314 312 310 310 310 311 315 319 320 321 321 320 320 320 319 319 319 319 321 322 322 322
312 314 313 316 318 316 317 318 316 319 325 327 325 328 334 327 319 321 323 324 325 326 327 327 325 324 324 326 328 330 330 330 331 333 332 331 332 333 332 331 331 331 330 330 330 330 331 329 327 326 326 326 325 324 323 322 324 326 326 324 320 315 313 316 316 315 315 316 316 316 316 314 314 313 312 309 307 307 307 308 311 316 318 319 319 319 319 319 320 320 320 320 321 321 320 320 320
318 322 320 322 322 319 318 318 317 320 325 327 326 330 334 324 318 322 323 322 324 325 325 325 323 323 323 323 324 326 326 326 327 329 330 329 329 331 331 330 330 331 330 330 331 331 330 328 325 324 324 325 324 323 323 324 325 325 324 322 318 315 315 317 316 315 315 315 315 315 314 313 311 311 309 307 306 306 307 309 313 316 317 318 319 319 318 318 319 321 322 321 321 318 317 316 315
Wind_Speed
9 10 12 13 13 13 8 6 2 2 2 1 3 1 4 5 2 4 4 3 3 3 4 6 4 5 4 2 6 8 5 5 5 4 3 3 15 24 25 24 26 29 31 33 31 30 29 27 25 23 22 20 19 19 18 18 17 17 18 18 19 20 21 23 23 23 22 21 20 19 18 16 16 15 14 13 13 14 15 15 16 15 16 17 18 18 18 18 18 17 16 16 15 15 15 16 18
9 11 13 14 13 11 4 3 2 3 3 2 3 4 4 2 1 3 2 2 3 6 6 6 5 3 2 4 7 8 6 2 2 4 6 14 23 25 23 23 26 28 31 32 31 31 30 28 26 24 22 21 20 19 18 18 17 18 18 19 20 19 20 22 23 23 21 20 20 19 18 17 17 15 14 13 13 14 15 16 17 16 16 17 18 18 18 18 17 16 15 15 14 13 14 16 17
11 13 14 14 11 8 4 3 1 1 2 3 5 4 2 2 3 1 4 7 7 15 13 8 5 4 4 3 5 4 3 3 4 9 13 20 24 25 23 22 25 27 29 31 31 32 31 29 26 24 23 21 20 19 18 18 17 17 18 18 19 19 20 21 23 22 20 19 19 19 18 17 16 15 14 13 13 14 16 17 18 17 17 17 18 18 18 18 17 16 15 14 13 13 14 16 17
12 14 15 13 8 5 4 3 2 4 2 4 4 4 2 4 4 2 6 9 14 22 15 7 4 4 4 3 3 4 5 3 9 15 19 21 22 26 23 22 26 28 29 30 31 31 30 29 26 25 23 22 20 19 18 17 17 17 17 17 18 18 19 20 21 21 20 19 18 19 18 16 15 15 15 14 14 15 16 17 18 19 18 18 18 18 17 17 16 15 15 13 13 13 14 17 18
13 14 13 10 5 2 3 2 2 3 4 4 2 4 3 5 5 5 9 15 19 23 12 5 1 2 4 5 3 3 5 5 12 17 22 21 21 24 21 21 26 27 28 29 30 30 30 29 27 25 23 22 20 19 17 16 16 16 16 16 16 17 18 19 18 17 17 17 18 19 18 16 15 15 15 14 15 15 15 17 19 20 19 19 18 18 17 16 16 15 15 14 13 12 13 17 19
14 14 11 7 5 3 3 2 2 3 5 4 2 6 4 6 6 7 13 18 16 12 4 6 1 1 4 6 7 7 5 5 12 16 22 22 21 22 19 21 25 27 28 28 29 30 29 28 27 24 23 22 20 19 17 16 16 15 15 15 16 17 18 19 18 16 16 16 17 18 17 16 16 15 15 15 14 14 14 15 19 20 19 19 18 18 17 16 15 15 14 13 12 12 12 17 19
15 12 7 6 4 2 3 2 4 4 5 5 4 6 7 8 9 9 11 12 8 2 1 4 4 4 3 4 6 6 4 5 11 17 22 21 22 21 19 22 25 27 28 29 29 29 29 28 27 24 23 22 21 19 17 17 16 15 14 14 15 16 17 18 18 18 16 16 17 17 15 15 15 15 14 14 13 13 12 14 18 21 20 19 18 18 17 16 15 15 14 13 12 11 11 16 18
14 8 5 4 2 3 3 2 4 3 4 5 5 8 11 14 14 10 5 5 5 4 2 6 7 5 2 3 3 4 4 7 11 18 22 20 22 21 20 24 26 27 28 28 28 28 28 27 26 24 23 22 21 19 18 17 16 14 13 12 13 13 15 16 17 18 17 17 18 17 15 14 13 13 13 13 13 13 13 14 18 20 20 19 18 18 17 16 16 15 14 12 11 10 10 13 17
12 6 4 3 1 1 1 2 4 3 5 6 6 11 17 20 18 10 6 7 7 7 6 11 6 3 3 4 4 2 4 7 11 19 21 20 20 20 21 24 26 27 28 28 28 28 27 27 25 24 23 22 20 19 18 17 15 14 11 11 11 11 13 14 14 14 15 15 17 17 15 15 14 13 13 13 14 15 15 15 18 20 19 19 18 18 17 16 16 15 14 13 11 10 9 10 14
9 4 4 3 2 0 4 2 3 3 5 5 8 17 20 20 18 12 8 7 8 7 9 11 4 7 8 5 4 2 4 7 12 18 19 19 18 18 22 24 25 25 28 28 27 27 27 26 25 24 22 21 20 19 17 16 15 13 11 10 10 11 11 12 13 13 14 13 15 16 15 14 14 13 13 14 14 15 15 16 17 19 19 19 19 19 18 17 16 15 14 13 11 9 9 8 11
5 2 4 4 3 1 4 4 4 4 5 5 10 17 15 17 17 10 7 7 9 7 11 10 4 12 10 4 3 1 5 8 12 17 19 20 18 20 23 25 25 24 27 28 27 27 26 25 24 24 22 21 19 18 17 15 14 12 10 10 10 11 11 13 14 14 14 14 14 15 15 14 14 14 14 14 15 15 15 16 17 18 18 19 20 20 20 19 17 17 15 13 11 9 8 8 9
2 1 4 3 2 3 4 3 5 5 7 5 6 9 13 18 15 8 6 6 8 8 11 10 10 14 7 3 4 3 7 9 12 17 18 20 20 22 24 25 25 25 27 27 27 26 26 25 24 23 22 20 19 17 16 15 13 11 10 10 10 11 12 13 15 15 15 15 15 15 15 15 14 14 15 15 15 15 15 15 16 18 17 18 19 20 21 20 19 18 16 14 12 10 8 8 8
3 2 4 3 3 3 3 2 4 5 6 4 4 9 18 17 12 9 6 4 8 8 7 10 16 13 5 4 6 7 9 11 14 17 19 20 21 23 24 25 24 26 27 26 26 26 25 24 24 23 22 20 18 17 15 14 13 11 10 10 11 12 13 14 14 15 15 15 15 15 15 15 15 15 15 15 15 15 15 15 16 17 17 17 17 19 21 21 20 19 17 15 13 11 9 8 7
5 4 4 2 2 1 3 2 3 2 5 4 2 12 18 14 11 10 4 5 3 3 6 12 17 11 5 7 6 10 12 14 17 18 20 20 22 24 24 24 23 23 25 25 25 24 24 24 23 23 22 20 18 17 15 14 13 11 11 11 12 13 13 14 14 15 15 15 15 15 15 15 15 15 15 15 15 14 14 14 14 16 17 17 16 18 20 21 21 20 19 17 15 13 11 8 8
6 4 4 2 1 1 2 2 2 1 4 3 3 14 18 14 13 10 7 3 2 5 10 13 16 7 4 9 8 15 16 17 20 18 20 20 21 23 21 22 21 20 21 23 23 24 24 23 23 22 22 21 20 19 17 15 13 12 11 12 13 13 14 14 14 15 15 15 15 14 14 14 14 14 14 14 13 13 12 12 12 14 15 16 16 17 19 21 21 21 20 18 16 14 12 10 8
6 3 4 1 2 2 2 3 3 1 4 4 6 16 16 14 14 12 7 1 6 9 10 11 12 2 5 12 13 21 20 19 20 19 20 18 19 20 19 20 19 18 19 21 21 22 22 22 22 21 22 22 21 20 18 17 14 13 12 12 13 13 14 14 14 14 14 14 14 14 14 14 14 13 13 12 12 11 11 11 11 12 14 16 15 16 17 20 21 21 20 19 17 15 13 11 9
6 3 4 0 3 3 3 4 4 3 5 6 11 18 11 11 14 10 5 6 11 9 7 8 9 4 7 12 16 26 22 21 21 19 20 17 19 20 18 19 19 19 19 20 19 20 21 21 22 21 22 22 21 20 19 18 15 14 12 13 13 13 13 13 14 14 14 15 15 15 14 14 14 13 12 11 10 10 10 10 10 11 12 15 15 15 16 18 20 21 21 19 18 16 14 12 10
5 3 3 2 3 4 4 6 5 2 4 7 13 16 7 9 15 6 3 5 7 6 6 7 4 2 10 12 18 28 23 22 21 19 20 18 19 21 22 22 22 22 20 19 19 21 22 22 23 23 23 22 22 21 20 19 17 15 14 14 14 14 13 13 14 14 15 16 15 14 14 14 13 12 11 10 10 9 9 9 9 9 10 12 14 15 15 17 19 21 21 20 19 17 15 13 11
4 3 2 4 4 5 5 5 3 3 6 10 16 17 9 12 14 2 2 2 1 3 5 7 8 9 14 16 23 29 23 22 21 19 21 22 25 26 27 26 24 22 21 22 22 23 24 25 25 24 23 23 23 22 20 20 19 17 15 16 15 14 13 13 14 14 14 14 14 13 13 13 13 12 10 9 9 9 9 9 8 7 7 9 12 14 15 16 17 19 20 20 20 18 16 14 12
4 3 2 7 5 5 6 6 8 9 11 10 13 18 14 16 14 2 4 1 2 1 4 7 12 16 19 22 28 28 25 24 22 22 23 26 29 28 29 28 26 25 24 24 24 24 25 26 26 24 24 24 23 23 22 21 20 18 17 17 16 15 13 12 13 13 13 12 13 13 12 12 12 11 10 9 8 8 8 8 7 7 7 8 9 11 14 15 15 17 19 20 21 20 17 15 13
4 5 4 5 4 3 6 8 11 14 12 8 12 16 15 16 15 4 5 5 3 7 12 9 13 22 24 26 30 28 27 24 24 24 24 26 27 28 28 27 27 27 27 26 26 26 26 26 25 24 24 24 24 24 23 22 21 19 18 17 16 15 14 13 12 12 12 12 13 13 13 13 12 11 10 10 8 7 7 6 6 6 6 6 7 8 10 12 13 15 17 19 21 20 17 15 14
3 6 9 6 3 3 6 10 15 16 12 10 11 10 10 12 13 7 4 5 4 5 11 11 13 23 26 29 31 28 27 25 25 26 24 24 26 27 26 25 27 28 29 29 29 29 27 26 24 24 23 24 24 24 23 22 21 19 18 18 17 16 14 13 12 11 12 13 13 14 14 13 12 11 10 9 8 7 6 5 6 6 5 5 5 6 7 9 11 13 15 17 19 19 17 15 15
2 7 8 8 9 6 9 15 19 18 10 9 10 9 12 10 11 10 9 11 8 7 6 10 16 23 26 29 30 28 27 27 26 24 24 24 26 26 22 23 28 31 31 30 30 29 28 27 24 23 23 24 24 24 23 22 21 19 18 18 18 16 14 13 12 12 12 12 13 13 13 12 11 11 10 9 8 7 6 6 6 5 4 4 5 6 6 7 9 11 13 15 17 18 17 15 14
5 6 4 7 11 9 13 17 19 20 14 14 15 13 12 7 7 8 11 17 13 8 5 10 19 24 26 28 29 28 29 28 25 23 24 24 24 23 20 21 26 29 31 29 29 28 27 26 24 24 24 24 25 25 24 23 22 20 20 20 19 17 15 14 13 13 13 13 14 13 12 11 11 11 10 9 7 7 6 6 7 5 5 4 5 5 6 6 8 10 12 13 15 17 17 16 14
6 6 5 6 10 11 14 15 18 22 19 17 13 11 14 11 8 6 10 13 10 6 5 14 21 25 28 28 28 30 30 27 25 24 25 24 23 23 22 23 24 27 29 29 28 27 26 25 25 25 25 25 25 25 25 24 22 21 21 20 19 18 16 15 14 14 14 15 15 13 12 11 11 10 9 9 7 7 7 7 6 6 6 6 5 5 6 6 8 10 12 12 13 15 16 16 14
6 8 7 7 10 13 14 14 16 19 18 14 6 10 14 8 4 6 8 6 7 8 12 19 22 27 30 29 29 30 30 27 26 26 26 25 24 23 23 23 23 25 27 28 28 28 26 24 25 25 26 26 25 25 25 24 23 21 21 20 19 18 17 15 15 16 16 16 14 13 12 10 10 9 8 8 8 8 8 8 7 6 6 6 6 6 6 7 8 10 11 12 12 14 15 16 14
5 7 9 10 12 14 11 10 15 15 15 13 7 10 9 1 2 4 3 6 11 13 18 19 20 26 29 29 30 30 30 28 26 27 27 26 25 23 21 22 24 24 26 27 27 28 26 24 24 24 24 24 24 25 24 24 22 20 20 21 19 17 16 16 17 17 17 16 13 12 11 9 9 8 7 8 9 9 8 8 7 7 6 6 6 6 6 7 9 10 11 11 11 12 13 15 14
8 8 8 10 10 10 8 8 14 10 8 13 8 8 8 3 4 7 7 11 14 17 20 18 19 22 24 28 30 30 31 28 26 27 28 27 26 24 23 23 24 25 26 26 27 28 27 25 24 23 23 23 23 24 24 23 22 20 20 19 18 16 14 16 19 18 18 16 13 11 10 9 8 8 7 8 9 9 9 8 7 6 6 7 6 6 7 7 8 9 10 10 10 10 11 13 14
8 6 4 8 7 7 7 7 10 5 4 10 4 4 9 2 6 8 10 16 17 19 21 19 19 20 21 26 29 30 31 29 27 28 29 27 25 24 23 23 24 25 26 26 26 26 26 26 24 23 23 23 23 24 23 22 20 19 19 18 18 16 13 17 19 16 17 15 12 10 9 8 6 6 7 8 9 8 8 6 5 6 7 8 8 7 8 8 8 9 9 9 8 8 9 11 13
6 3 1 5 7 6 5 2 4 1 4 8 4 2 8 7 9 5 14 21 20 19 19 18 19 21 22 26 28 29 30 30 29 29 27 25 24 23 22 22 24 24 24 25 25 25 26 26 24 23 23 22 23 23 22 21 19 18 17 16 16 15 14 19 18 14 15 12 10 9 9 9 7 6 7 7 8 8 7 5 4 5 7 9 9 8 8 9 9 9 9 8 7 7 7 9 11
2 2 1 3 2 5 9 5 1 2 4 5 7 2 6 9 10 4 18 24 24 21 18 19 20 22 23 26 29 29 29 29 28 27 25 23 23 22 21 22 23 24 23 23 23 23 25 25 24 24 23 22 22 22 21 20 18 17 15 14 15 15 16 18 16 13 11 9 9 9 8 8 8 8 8 7 8 6 5 5 4 4 6 9 9 9 9 9 9 10 9 9 7 6 7 9 10
2 1 3 3 1 4 10 7 0 1 4 1 6 1 5 9 9 5 19 22 23 22 19 21 21 23 23 25 28 29 28 27 26 26 25 23 23 21 21 22 23 23 21 19 20 22 23 24 24 23 23 22 21 21 20 18 16 16 15 14 15 16 17 17 15 14 11 9 9 9 9 7 8 8 8 7 7 6 5 5 5 4 5 7 8 9 9 8 9 9 9 9 7 5 6 8 9
3 1 2 4 2 2 6 5 3 1 2 2 1 1 4 7 6 3 18 21 20 18 19 22 23 24 25 26 28 28 28 27 27 27 25 23 22 21 21 22 22 20 18 16 18 21 21 22 24 23 22 21 20 20 18 16 15 16 16 16 17 17 18 16 16 15 12 10 9 9 9 8 8 9 8 8 7 7 6 6 6 5 4 6 7 8 9 8 8 8 8 9 7 5 5 7 8
3 2 1 3 3 2 2 4 5 5 3 4 3 1 5 9 6 2 17 22 18 17 19 23 24 24 26 27 27 28 29 29 29 28 25 23 22 21 22 21 20 18 16 16 17 18 19 20 22 21 20 20 20 19 18 16 16 17 17 17 18 17 18 17 15 14 12 11 9 9 10 10 10 9 9 8 8 8 7 7 7 5 5 5 6 8 8 8 7 7 7 8 8 6 5 7 9
3 1 0 3 3 3 2 3 4 6 6 5 5 3 6 11 8 3 14 22 20 19 20 22 24 24 25 28 28 28 31 31 30 28 25 24 22 21 22 21 18 17 17 17 17 17 17 17 18 18 18 19 20 19 18 17 17 18 18 19 19 18 17 16 14 13 13 12 11 11 11 11 11 10 9 9 8 8 8 7 8 6 5 5 6 7 8 8 6 6 6 7 9 8 6 8 11
6 4 3 3 4 4 4 4 5 4 5 6 5 5 6 9 9 7 11 22 22 18 17 19 21 22 23 27 29 30 32 32 31 28 25 24 22 21 22 21 18 17 17 17 17 17 18 17 17 17 19 19 20 20 20 20 20 20 19 20 21 19 17 16 15 14 14 13 12 11 12 12 11 10 9 8 8 9 8 8 8 8 6 6 7 7 7 7 6 6 7 8 11 12 10 11 12
4 2 2 3 5 6 2 3 6 1 1 7 6 5 7 8 9 9 11 19 17 12 14 18 21 23 25 28 31 32 32 32 31 28 26 25 23 22 23 21 19 19 18 18 18 18 19 19 19 19 20 20 21 22 22 22 22 22 21 21 21 21 19 17 16 14 12 12 11 11 11 12 11 11 10 9 9 9 10 10 10 9 7 7 8 8 8 8 7 7 9 10 12 13 14 13 12
1 2 3 4 5 6 3 3 7 3 2 5 3 3 8 9 9 9 8 11 13 16 17 19 23 25 27 28 30 32 31 30 30 29 27 26 24 24 24 21 19 20 20 19 20 19 18 19 21 21 20 20 22 24 23 23 23 22 22 22 21 20 19 17 15 13 11 11 11 11 11 11 11 10 9 9 9 9 10 10 10 10 9 9 9 9 9 9 9 9 10 12 14 13 13 14 14
2 1 1 4 4 4 5 4 4 1 3 4 4 4 9 11 10 8 7 12 18 28 29 28 30 28 26 28 29 30 30 29 30 30 29 28 27 26 24 20 20 20 21 21 20 18 18 19 21 22 22 22 23 23 23 23 23 21 20 19 18 17 16 15 13 12 11 11 11 10 11 10 9 8 7 8 8 8 9 9 9 11 11 10 9 9 10 11 10 9 10 13 15 14 13 14 15
2 3 2 5 3 1 4 5 4 2 1 5 6 5 7 8 8 8 8 14 19 28 34 34 34 33 31 33 33 33 33 32 31 31 31 29 29 28 23 20 21 21 22 22 21 18 18 20 22 22 23 24 25 24 23 23 22 20 19 17 16 15 14 13 13 12 12 12 11 10 9 9 8 7 7 8 8 8 8 8 9 10 11 9 8 9 10 11 11 10 12 13 14 14 14 15 16
3 5 6 6 3 3 6 4 5 6 4 4 3 4 6 5 5 7 5 8 12 17 24 25 27 29 27 27 30 32 34 34 34 33 31 30 31 28 23 22 23 22 23 22 20 19 19 22 23 22 24 26 25 24 24 22 21 20 19 18 17 16 15 14 14 13 13 12 11 10 8 8 7 7 7 8 8 8 8 8 9 10 9 8 8 9 9 10 11 11 13 13 12 11 12 15 16
4 5 9 9 7 7 8 4 4 5 5 3 1 1 5 5 4 6 5 3 5 8 14 19 23 23 21 24 28 30 31 32 34 33 31 30 30 27 24 24 24 23 23 21 19 19 20 23 24 24 25 25 25 24 23 21 20 20 20 20 19 17 16 15 14 12 11 11 10 9 8 7 7 7 8 8 9 9 9 10 10 9 8 7 8 10 10 10 11 11 12 13 12 10 10 14 16
4 5 10 11 9 8 8 3 3 1 3 3 2 3 5 6 4 6 6 2 3 5 9 15 19 21 23 26 29 30 30 31 32 31 29 28 28 27 26 25 24 24 23 21 20 20 22 24 25 25 25 25 24 24 23 22 21 20 19 18 17 17 16 15 14 12 11 11 11 10 9 8 7 7 8 7 8 9 10 10 10 9 9 8 9 10 10 11 11 11 12 13 13 12 11 13 15
3 5 7 8 8 8 7 4 4 4 3 4 3 4 3 6 4 6 4 2 3 6 9 11 16 22 24 25 26 29 31 31 31 30 28 29 29 28 27 26 25 24 24 22 21 22 24 25 25 26 26 25 24 23 23 22 21 20 19 17 17 15 14 14 14 14 13 12 11 10 10 9 8 8 7 7 7 8 9 9 8 9 10 10 10 9 10 11 12 12 13 13 12 12 11 11 13
6 6 6 7 8 8 6 6 5 3 1 5 5 2 2 5 5 4 1 3 4 9 12 12 15 21 23 23 25 27 29 29 29 28 30 32 30 28 27 26 25 25 24 23 23 24 25 25 25 26 26 25 24 24 24 23 21 19 18 18 17 15 15 15 15 14 13 12 12 11 10 9 8 8 7 6 6 6 7 7 7 8 9 9 9 10 11 11 13 13 12 12 12 12 12 11 11
5 5 4 2 3 3 4 5 4 1 2 5 6 2 2 5 5 1 1 2 5 8 10 10 13 18 21 22 23 25 26 27 26 26 29 32 30 29 27 26 25 25 25 24 24 25 26 26 25 26 25 24 24 24 23 23 21 20 19 18 17 16 16 16 15 14 13 12 11 10 10 9 8 8 7 7 6 5 5 5 5 6 7 8 9 10 11 11 12 13 11 11 11 11 11 11 11
2 4 4 4 3 3 3 2 3 3 1 7 8 6 4 4 5 2 3 3 3 5 6 8 11 17 20 22 23 25 26 26 25 25 27 30 30 29 27 26 26 26 26 26 25 26 26 26 26 25 25 25 25 25 24 23 21 20 19 17 16 15 15 15 15 14 13 12 11 10 10 9 8 7 6 6 5 5 5 5 5 5 6 6 8 9 10 10 11 12 12 12 11 11 10 10 11
2 2 3 2 2 3 4 3 3 3 4 7 6 4 5 3 5 4 5 5 3 3 6 8 11 16 21 23 24 26 27 26 26 25 26 29 30 30 28 27 27 28 27 27 27 27 27 27 26 25 25 26 26 25 24 23 21 20 18 16 14 12 12 13 13 13 12 12 10 9 8 7 6 5 5 5 5 5 6 6 5 5 5 5 7 8 8 9 10 11 11 11 11 11 10 11 11
4 2 4 3 2 2 2 3 0 2 6 5 3 3 2 5 6 5 6 7 5 5 7 9 11 15 18 20 23 26 28 27 27 27 27 29 32 32 30 28 28 29 29 29 28 27 28 27 26 26 26 27 26 25 24 22 20 19 18 15 13 11 10 10 11 11 10 10 8 6 6 5 4 4 4 4 5 5 6 6 7 6 5 5 6 7 7 8 9 9 10 10 9 9 9 10 10
5 5 5 4 2 1 1 3 0 3 5 3 3 3 2 4 4 4 7 8 8 10 13 13 12 14 16 17 21 24 26 27 27 27 28 30 32 32 31 29 29 30 31 30 29 28 29 28 27 26 26 26 26 25 23 21 19 18 17 16 13 10 9 9 9 8 8 8 6 5 5 4 4 4 3 2 3 4 4 5 7 7 6 6 6 6 6 7 8 9 9 9 8 8 8 8 9
5 4 5 4 4 4 3 3 2 4 4 2 1 2 2 3 3 4 6 9 11 12 12 12 11 14 17 19 22 23 24 25 26 27 27 29 30 31 30 28 29 31 32 32 29 29 30 29 28 27 27 27 26 24 21 20 19 18 17 16 13 10 9 8 7 6 6 6 5 4 4 4 4 3 2 1 1 2 3 4 5 7 7 6 6 6 4 4 8 10 10 9 9 9 8 8 9
3 3 4 2 5 5 2 3 5 3 1 1 1 2 3 3 3 5 4 6 12 13 4 9 12 15 19 21 24 24 25 25 25 25 25 26 28 29 30 29 29 32 33 32 30 30 30 29 29 28 27 27 26 23 21 19 18 17 16 15 13 10 9 8 8 7 6 6 4 3 3 3 3 3 2 1 2 3 4 4 5 6 6 7 7 6 4 3 6 10 9 9 9 9 8 8 9
1 3 3 4 4 7 4 2 0 3 1 3 1 2 4 2 2 5 5 5 8 11 5 5 11 16 19 21 23 24 24 23 24 24 23 24 27 29 29 29 30 31 33 33 31 31 31 29 29 29 28 27 26 23 20 19 17 16 15 14 12 11 11 10 9 8 7 6 4 4 4 3 2 2 2 2 2 3 4 5 4 5 6 7 7 6 5 4 6 8 8 8 8 8 8 9 9
4 3 5 3 2 4 4 2 2 3 2 4 1 1 4 1 1 4 6 5 5 7 6 4 4 10 13 15 18 19 20 19 19 21 23 24 26 28 28 29 30 31 32 32 31 31 31 29 28 28 27 26 25 22 19 17 16 16 16 15 12 11 12 11 10 8 8 7 5 5 4 2 1 1 2 2 2 2 3 3 3 4 5 5 5 5 4 4 5 5 5 6 5 6 8 9 8
3 4 4 4 2 1 1 2 1 1 2 3 3 2 2 3 3 2 4 4 5 5 6 5 4 4 3 6 13 16 17 18 17 19 23 25 24 25 28 29 30 32 31 31 30 30 30 28 27 27 26 25 24 22 19 17 17 17 16 14 12 11 12 12 10 9 9 8 6 5 4 2 1 1 1 2 2 2 3 3 3 5 6 5 6 5 5 5 4 3 3 4 4 6 8 8 7
2 2 2 2 2 4 2 2 2 3 3 2 2 3 2 4 4 1 1 3 2 3 5 5 6 9 9 3 9 14 16 20 22 22 23 24 23 23 26 30 32 32 31 30 29 29 29 27 27 26 27 27 25 23 20 19 18 17 16 14 12 11 12 12 11 10 9 8 6 4 3 2 0 1 1 1 1 2 3 4 6 7 7 6 7 7 6 6 5 5 4 5 6 7 8 7 7
1 2 2 1 1 2 1 1 1 3 3 3 1 2 4 4 2 3 4 3 1 3 4 5 8 12 11 7 4 9 9 10 17 23 23 21 22 24 25 26 29 30 29 28 27 27 27 28 28 27 28 29 28 26 24 22 20 19 17 15 14 13 13 12 10 9 8 7 6 5 3 3 1 1 1 1 2 3 4 6 8 8 8 8 8 8 7 6 5 5 6 6 7 7 7 6 7
3 4 4 3 2 3 2 1 2 2 3 3 4 2 6 4 1 3 3 2 1 4 7 7 9 13 13 11 9 6 5 6 10 18 20 14 14 19 19 20 24 26 24 24 25 26 28 29 29 28 29 31 31 30 28 25 23 21 19 17 16 15 14 13 11 9 8 7 7 5 3 2 2 2 2 3 4 4 5 7 9 8 8 9 8 7 7 5 5 5 6 7 7 6 5 5 6
Wind_Direction
170 156 145 138 138 137 132 127 120 345 80 275 269 212 258 233 243 291 296 323 285 304 23 356 304 206 177 156 164 136 96 146 161 136 199 169 143 156 162 163 165 164 164 165 163 161 161 162 161 159 155 150 147 144 142 139 139 141 146 149 150 154 158 160 161 159 157 155 154 153 151 149 143 140 141 145 147 147 146 140 130 123 119 119 121 121 119 118 116 116 114 110 107 105 104 102 99
165 151 141 136 138 141 144 104 107 343 51 295 267 182 250 255 203 245 241 256 250 316 348 3 21 104 91 80 112 104 73 57 148 120 126 140 146 155 160 162 166 165 165 165 163 161 161 162 161 159 155 151 147 144 143 139 138 137 141 146 148 151 155 158 159 156 154 155 155 153 150 145 143 142 145 148 149 149 151 144 133 127 123 122 123 125 123 121 119 118 119 117 113 107 101 98 98
158 148 140 135 134 137 130 70 86 80 97 253 269 224 232 185 218 215 208 242 287 318 308 284 322 14 349 51 71 73 79 30 128 130 128 143 151 156 161 166 168 167 167 166 164 162 161 161 161 160 157 152 147 145 143 139 137 136 137 140 144 147 150 154 155 151 149 153 156 155 150 146 148 148 148 150 150 150 150 145 137 132 127 125 126 128 126 124 122 121 119 117 112 107 101 96 96
153 145 139 137 127 114 100 54 125 124 173 233 270 259 226 210 257 271 246 281 313 312 292 264 318 7 359 67 59 57 84 83 136 137 138 148 156 158 162 168 170 169 169 168 164 162 161 161 161 161 159 154 148 147 144 140 138 136 137 137 139 141 143 147 147 149 150 151 154 152 146 144 148 149 151 153 153 151 149 145 138 134 131 130 131 130 128 127 126 124 121 117 112 107 101 95 94
150 142 141 142 130 114 97 72 119 138 212 196 245 260 230 227 258 270 284 305 314 308 279 204 344 31 50 48 32 73 85 109 134 140 145 150 157 160 162 168 170 171 171 168 165 163 162 161 161 162 161 155 151 150 147 143 141 139 139 136 135 135 137 138 138 145 147 147 152 147 142 142 147 153 153 154 153 152 154 149 141 137 135 135 134 132 130 130 128 126 123 120 115 107 100 96 95
145 135 136 134 113 121 114 114 181 221 226 172 229 265 246 239 260 281 299 308 310 312 254 164 158 89 74 30 45 83 70 118 140 147 150 148 156 163 162 166 171 172 172 168 165 165 162 162 162 162 162 158 155 153 151 148 145 143 142 141 140 138 138 138 140 145 146 152 153 143 141 147 153 158 154 152 151 150 156 148 139 139 139 138 137 135 132 131 130 127 124 122 116 109 101 97 97
143 132 126 117 80 74 116 172 211 237 249 184 211 272 273 269 282 293 306 315 319 342 133 137 137 116 76 18 66 69 35 138 152 154 152 147 156 166 165 168 173 173 172 168 166 165 163 163 163 163 163 161 159 158 156 153 150 148 148 146 145 145 141 140 147 150 153 159 147 140 148 154 156 156 152 150 147 147 149 137 131 137 142 142 141 137 134 133 132 129 126 124 119 111 102 100 99
143 131 115 114 45 34 102 220 240 222 250 231 236 266 272 281 288 292 293 289 295 302 253 154 136 112 51 358 51 28 54 131 152 154 153 151 158 167 169 171 175 174 171 167 165 165 164 164 165 165 166 164 163 162 159 156 154 152 153 151 151 150 144 144 152 153 156 156 144 147 155 152 151 150 147 144 141 140 138 131 129 136 143 145 145 141 138 138 136 132 130 127 124 116 105 101 101
140 123 109 103 103 51 14 269 265 232 245 264 268 269 274 285 288 282 269 260 266 280 215 165 131 109 116 50 46 24 96 128 152 153 154 157 161 168 171 173 174 173 169 166 166 166 165 166 166 167 168 167 165 165 163 160 156 153 153 152 152 150 146 146 151 149 148 148 145 149 151 144 147 146 143 139 138 137 135 133 131 137 145 148 149 146 143 143 140 137 135 135 133 127 115 105 103
132 115 126 86 113 344 309 264 251 246 254 261 273 277 280 288 288 274 261 262 252 246 185 163 104 111 124 79 60 55 125 138 156 155 158 164 165 171 173 173 176 173 169 167 167 167 166 167 168 169 170 169 167 168 168 163 158 154 151 149 150 147 145 143 142 141 138 137 137 139 139 138 140 140 138 137 138 137 134 133 131 137 146 152 153 151 150 149 146 143 143 145 144 140 129 115 107
117 85 116 77 84 213 257 256 265 275 284 283 283 282 292 302 298 282 256 253 244 217 171 168 118 118 117 88 87 127 160 152 164 163 165 170 171 175 174 174 176 173 170 168 167 168 168 168 169 171 171 171 170 171 170 166 160 154 151 151 151 147 144 143 140 139 137 137 136 134 134 133 134 135 134 134 133 131 131 132 130 132 142 151 155 156 155 154 152 151 153 154 155 155 144 131 115
111 41 83 91 142 201 216 252 273 296 300 284 284 304 336 322 314 311 276 228 204 175 167 177 154 135 112 94 132 184 171 158 171 170 168 171 172 173 173 173 174 172 170 169 168 170 169 169 170 172 173 172 172 173 171 167 163 157 155 155 153 149 146 144 140 138 138 139 139 136 134 132 133 133 132 131 129 128 129 132 130 127 133 145 154 159 159 158 158 158 160 163 164 167 161 147 128
132 150 87 124 183 198 189 233 274 313 307 260 251 323 344 332 330 330 297 189 158 150 162 168 154 138 100 122 151 178 168 164 170 169 167 167 169 170 171 171 171 170 170 170 169 170 170 171 172 173 174 173 174 174 172 169 167 164 161 160 155 152 148 145 142 139 138 138 139 137 136 134 134 133 131 131 129 130 130 132 131 127 130 136 147 158 163 162 162 164 167 170 172 174 173 162 142
134 149 109 149 203 189 178 242 289 331 277 262 278 331 345 347 346 350 31 100 113 133 149 157 151 128 109 137 152 173 163 166 167 166 167 165 167 167 167 168 166 167 169 170 170 171 172 175 174 174 173 173 176 177 175 173 171 170 168 166 159 154 151 149 146 143 141 141 140 138 137 135 134 134 132 131 130 130 130 130 130 130 131 133 139 153 164 167 167 170 171 174 178 179 179 175 158
136 129 102 123 251 268 208 214 210 162 259 265 333 339 347 358 1 12 43 68 41 120 139 152 155 127 165 169 170 174 162 166 167 166 167 160 163 162 160 161 161 164 167 170 172 173 174 176 176 175 175 175 180 180 179 176 174 177 173 168 160 154 154 153 152 150 149 147 145 142 140 138 136 135 134 132 130 130 130 130 130 130 132 134 137 147 162 171 172 173 175 177 181 183 182 181 172
141 115 81 101 236 233 212 197 181 219 264 259 327 347 351 356 12 25 14 151 130 129 137 147 163 153 199 178 171 170 163 167 166 167 164 151 155 153 149 153 156 162 167 170 172 174 174 177 177 177 178 179 183 183 181 177 175 179 175 169 161 157 157 158 159 156 155 153 152 150 148 147 143 142 140 134 132 134 134 131 130 129 130 134 138 144 157 171 176 177 179 181 184 186 185 185 181
143 108 73 348 220 192 208 199 175 211 271 290 327 352 357 336 356 22 37 125 127 131 131 146 180 235 199 176 169 166 162 168 166 164 157 144 151 147 145 152 158 165 167 170 172 174 174 177 180 181 183 184 185 185 183 177 176 179 175 169 165 163 164 163 163 160 160 159 158 158 156 156 152 149 145 140 141 140 137 135 134 131 130 133 138 143 153 167 177 181 183 185 187 189 189 189 188
135 102 108 223 204 189 189 186 194 217 301 309 320 342 359 321 335 357 72 85 103 113 106 125 153 190 177 169 165 163 163 169 164 158 149 144 155 154 158 164 168 170 169 172 175 179 179 182 185 184 184 186 187 187 184 179 179 180 176 173 169 170 171 167 166 165 166 165 163 162 159 160 159 155 149 147 150 145 142 143 140 135 134 135 138 144 151 165 177 185 187 188 191 191 191 192 192
150 98 156 230 196 206 202 196 248 289 292 302 313 327 337 320 326 298 179 354 37 89 88 112 114 126 152 160 162 162 167 170 163 161 160 159 166 168 170 170 171 170 172 177 180 184 186 187 186 184 184 186 188 189 185 182 183 181 179 178 174 175 177 172 169 170 168 165 164 163 160 163 161 157 152 153 153 152 153 151 148 147 151 148 144 146 152 163 175 185 190 191 194 193 192 192 193
194 131 202 244 202 224 253 254 274 285 288 303 314 319 327 329 334 271 173 156 275 221 173 144 137 143 145 155 160 161 169 169 165 169 172 172 172 173 173 171 173 175 179 183 185 188 190 190 186 184 185 187 189 189 186 185 184 183 182 180 178 179 181 177 172 172 171 169 170 169 166 165 163 159 156 156 155 160 164 159 159 164 167 159 149 149 155 162 171 181 189 193 195 194 191 190 191
190 173 212 231 174 234 278 284 288 293 298 299 302 315 324 333 339 308 155 144 258 241 210 192 163 157 149 155 159 162 169 167 168 172 171 173 173 173 176 177 179 182 184 186 189 191 191 191 188 186 187 189 191 190 187 187 186 185 183 180 180 182 184 181 176 178 179 179 177 173 169 168 167 164 159 160 160 166 171 163 165 175 173 160 151 152 156 163 169 177 187 194 196 194 191 188 190
170 230 241 246 247 274 291 302 302 297 300 303 304 316 312 321 330 301 182 180 269 274 227 213 174 159 154 159 160 164 168 165 168 170 169 173 175 175 179 183 184 185 187 189 192 193 193 192 191 190 190 192 193 192 189 188 188 187 184 183 183 185 186 181 177 180 180 177 173 169 169 168 166 163 162 163 161 165 170 169 177 185 178 159 153 156 162 167 170 177 185 192 196 193 188 186 187
221 260 256 257 260 258 282 292 297 298 300 303 296 295 300 309 314 287 234 234 282 331 268 209 167 157 158 160 161 166 167 165 169 172 178 180 177 177 181 189 190 189 190 192 194 194 193 191 191 193 193 195 194 192 190 190 190 188 187 187 189 190 188 181 176 175 173 170 167 165 167 166 161 162 165 162 160 164 170 183 192 189 171 154 157 163 169 172 173 180 184 188 194 192 184 182 185
220 265 289 277 269 257 276 286 293 298 292 288 292 293 296 283 291 285 242 249 269 309 282 190 161 157 163 160 161 167 167 170 175 181 190 189 183 182 187 195 195 194 194 193 193 195 194 191 192 194 195 197 196 192 190 191 191 190 191 191 190 192 191 184 176 171 168 165 164 163 163 162 162 163 163 159 161 169 179 193 192 180 159 148 158 162 167 174 176 181 184 184 188 187 179 179 182
218 251 281 282 275 267 282 292 293 297 291 291 297 283 281 276 274 269 257 263 256 258 214 171 158 159 166 163 164 167 170 177 183 189 196 196 193 191 193 198 198 199 201 198 195 197 197 193 194 197 196 197 197 193 190 192 194 193 193 192 191 194 192 182 175 172 167 164 163 164 163 162 163 162 160 160 165 175 185 191 187 174 155 143 150 157 159 168 175 178 180 180 181 180 176 179 181
220 231 257 267 273 282 290 292 291 295 292 293 294 273 286 301 282 261 273 262 213 197 171 162 157 162 168 168 170 171 176 186 188 192 196 197 199 197 195 199 202 202 204 204 200 199 199 196 197 199 196 196 197 194 193 195 196 195 195 195 194 197 197 185 175 173 169 165 167 169 167 164 165 161 158 165 171 179 184 185 183 172 157 149 151 159 159 161 171 175 175 175 176 177 176 179 182
249 248 262 265 271 285 287 281 288 291 289 284 262 266 285 67 147 259 244 182 181 166 154 157 156 164 171 173 176 178 185 194 192 191 194 196 202 203 200 202 205 204 205 207 204 201 200 198 200 201 198 196 197 197 197 197 197 197 197 197 196 200 206 194 178 174 172 170 172 172 168 166 169 166 165 173 178 181 184 182 178 168 162 167 169 171 168 164 170 174 173 175 176 177 179 183 187
281 287 281 280 286 291 272 257 278 282 285 279 248 262 295 125 176 247 209 177 181 164 152 157 156 163 174 178 182 185 193 199 196 195 194 193 196 200 202 205 206 205 205 207 206 202 199 200 203 204 201 197 198 201 199 198 198 197 197 199 199 203 213 197 181 179 179 175 173 170 167 170 173 175 179 182 183 183 184 182 175 168 173 183 189 189 184 179 179 178 177 179 179 180 183 187 192
289 295 285 298 329 320 272 246 268 259 253 273 238 290 312 229 215 242 195 177 175 163 155 159 159 163 173 181 186 189 196 201 200 203 202 197 196 196 199 205 206 207 206 206 208 205 201 204 206 205 203 200 201 204 202 201 201 200 200 203 202 206 208 193 186 188 187 177 166 163 162 164 168 180 189 189 186 186 187 184 179 182 189 194 196 198 197 194 192 189 186 185 185 186 187 192 197
292 290 174 318 349 326 295 277 289 299 247 250 185 267 295 264 263 225 170 174 167 156 159 164 164 169 175 182 189 194 199 202 203 208 210 206 205 202 202 206 207 207 205 205 209 207 206 209 209 207 206 203 203 206 205 205 207 208 209 206 204 205 196 188 190 195 194 174 151 154 156 160 164 179 190 191 190 190 187 181 183 192 195 198 198 196 198 198 200 200 196 195 194 191 193 194 196
305 294 283 353 1 283 307 322 320 359 281 224 162 220 271 271 294 179 169 178 169 161 165 169 171 177 182 185 192 198 202 205 207 210 213 211 211 209 208 209 208 208 209 208 208 208 210 211 210 208 207 205 206 207 206 205 209 213 214 208 202 199 189 189 189 188 190 165 150 161 165 169 173 185 192 189 189 185 175 173 179 187 191 196 199 195 194 195 198 201 202 206 204 197 194 190 194
11 299 296 338 167 262 311 320 280 268 282 173 138 230 272 270 302 180 175 179 173 167 167 174 179 183 188 192 194 199 203 207 211 212 213 214 212 211 212 212 209 210 212 210 209 208 210 210 211 211 209 208 207 207 207 207 209 212 211 203 196 192 188 188 184 182 184 169 166 177 181 185 185 194 198 188 190 180 168 175 182 186 189 196 201 197 195 192 193 199 205 208 204 197 192 191 198
1 74 258 293 254 276 320 322 334 306 262 9 83 241 278 277 317 168 177 181 180 173 172 180 183 187 194 197 197 200 204 209 212 211 211 211 211 210 211 212 209 208 208 209 208 210 212 210 209 212 211 209 206 206 209 210 207 205 203 196 191 189 186 184 181 183 185 177 182 191 191 194 195 203 203 193 193 181 175 185 190 193 189 194 201 198 196 193 191 196 200 202 195 188 189 195 195
321 16 239 263 253 251 301 297 327 23 52 4 354 212 252 271 313 132 180 185 187 183 183 185 186 191 197 199 199 201 205 209 212 210 207 208 208 207 208 209 206 201 201 205 210 214 215 209 207 210 210 207 206 205 207 207 202 199 197 192 190 187 184 182 182 186 188 189 198 200 197 199 203 210 207 200 196 187 187 191 196 203 197 198 203 200 200 195 190 189 189 195 189 177 180 187 182
217 228 201 280 288 240 219 254 302 17 26 351 343 297 257 271 293 263 194 189 193 196 191 188 190 193 198 200 199 202 206 210 213 210 203 203 206 205 206 207 202 197 198 203 211 216 217 210 204 207 207 205 204 202 202 201 196 193 190 186 185 183 182 184 187 190 194 201 207 204 202 203 208 214 210 204 201 199 200 200 206 209 205 209 205 201 201 193 192 187 175 180 177 161 161 176 174
165 174 167 215 282 262 211 228 270 4 6 319 297 266 261 276 283 274 211 194 199 203 192 190 193 195 200 201 201 205 208 210 214 212 202 201 206 206 206 206 202 199 199 203 210 213 216 211 197 200 207 205 203 200 197 195 190 185 181 180 181 181 181 185 188 190 194 202 206 205 205 208 214 220 220 217 214 212 209 207 213 210 206 212 204 198 199 191 189 177 158 164 168 156 159 173 170
144 160 202 226 254 271 222 226 262 237 349 285 262 251 269 271 273 269 221 197 199 196 188 193 194 197 203 203 203 206 209 210 214 213 206 203 207 207 207 206 202 202 200 202 210 210 208 202 189 195 204 202 201 199 192 189 183 177 175 175 176 178 182 188 189 190 194 201 205 208 210 215 222 228 231 230 226 220 211 209 213 210 205 206 197 187 187 187 181 166 155 160 167 162 163 172 172
159 220 276 277 246 263 269 240 260 212 167 261 277 322 287 269 268 265 213 185 197 196 190 198 199 201 204 203 203 206 208 210 212 213 208 205 206 207 208 205 203 204 199 201 211 205 198 193 185 190 196 193 192 190 183 181 178 174 173 172 173 178 185 190 191 192 197 206 212 214 215 219 223 228 231 231 225 217 213 212 209 204 200 199 195 185 180 183 179 170 163 163 166 171 169 169 173
167 163 252 275 256 286 301 282 279 132 141 258 299 316 282 273 273 262 200 182 201 201 196 199 201 202 203 203 203 204 205 208 210 211 208 205 205 205 205 203 202 202 199 203 208 200 193 189 181 182 186 181 177 174 173 173 173 174 173 172 175 181 185 187 189 195 202 209 211 209 213 216 215 219 224 226 219 212 215 212 202 199 197 196 195 190 183 179 179 176 171 169 168 173 174 168 171
173 165 197 260 267 8 292 293 317 324 235 251 280 299 280 281 289 281 224 203 210 206 201 203 204 203 203 204 203 202 203 204 205 208 206 203 203 203 201 199 198 197 200 203 202 197 193 185 177 176 176 172 167 167 169 171 172 171 171 174 178 180 181 183 190 198 201 204 203 200 205 207 205 212 217 220 215 209 216 210 197 195 196 198 196 193 187 179 180 178 172 175 173 173 175 170 169
245 207 212 246 249 207 235 275 326 324 309 234 244 318 298 286 292 301 277 224 225 214 204 206 209 208 207 205 204 204 204 203 203 204 203 200 201 201 197 195 194 195 201 202 197 196 191 180 173 170 169 167 166 167 169 170 170 170 172 176 178 178 180 185 191 192 191 191 192 194 198 197 198 204 206 209 207 205 208 201 191 186 190 202 194 183 183 180 180 178 172 176 180 179 177 173 172
294 235 215 225 224 222 239 272 10 0 334 266 184 348 296 304 288 286 307 263 232 210 199 203 207 207 205 203 204 205 205 203 203 204 200 198 200 197 192 193 193 195 200 198 194 192 185 176 169 166 166 166 166 168 169 170 170 174 178 179 179 180 182 185 185 182 178 178 180 184 189 190 193 198 197 197 199 200 198 190 186 185 189 197 188 178 178 182 183 179 173 176 182 189 187 178 179
302 245 206 212 213 223 240 234 92 135 263 280 75 121 266 306 306 282 299 263 202 195 200 204 202 200 203 204 203 203 203 202 202 202 198 196 197 193 191 193 192 195 198 194 191 187 178 173 168 166 166 165 166 170 172 172 174 179 183 183 183 185 183 180 176 171 169 170 173 176 180 184 189 192 191 187 190 192 188 184 185 188 187 184 183 181 180 184 187 182 178 178 182 189 194 187 186
258 238 181 185 200 217 222 165 162 226 261 314 21 116 236 291 281 277 284 181 183 201 204 206 201 200 204 204 202 202 202 201 200 198 197 198 196 192 193 193 191 194 195 190 187 182 176 171 168 167 167 165 168 172 173 174 178 183 185 185 185 184 180 175 171 169 170 171 171 172 175 179 182 185 184 182 184 183 183 183 186 187 183 181 184 187 188 189 191 188 183 182 185 189 194 195 196
244 223 169 173 185 196 188 158 193 244 10 308 307 131 202 274 278 298 340 157 198 211 209 208 203 203 203 202 202 202 202 202 201 197 198 200 196 193 195 192 190 192 192 189 184 180 176 172 168 168 168 169 171 172 173 176 181 186 184 181 179 175 173 174 172 170 171 172 171 172 174 175 178 181 180 181 183 183 185 183 181 182 181 182 186 188 190 189 191 195 192 188 190 192 193 196 200
229 178 145 122 125 145 144 150 172 76 75 254 262 200 191 273 285 331 73 207 216 215 215 213 208 205 203 201 200 200 200 201 201 198 200 201 195 194 195 191 189 191 192 188 183 180 176 173 171 170 170 171 172 172 174 178 182 183 179 176 176 173 172 172 170 169 171 173 173 175 177 177 181 183 181 181 180 176 177 179 179 183 183 185 187 186 186 187 189 193 196 195 195 194 196 199 200
161 110 95 55 38 59 71 106 108 86 266 250 238 206 185 267 285 228 201 232 215 209 219 214 208 205 203 201 197 196 197 199 198 198 202 201 195 193 194 191 189 192 193 188 183 180 178 176 176 175 174 174 174 174 177 180 181 178 174 175 176 173 169 167 164 163 164 165 167 171 173 174 178 182 183 186 187 180 171 172 177 185 190 187 185 185 186 186 186 187 190 192 195 198 204 206 203
125 85 87 64 317 23 37 355 55 109 253 261 240 198 161 217 263 244 245 270 265 232 225 215 209 203 200 197 194 194 196 197 198 200 203 201 195 193 194 192 191 194 194 188 184 182 180 180 180 178 177 176 176 177 179 180 178 174 173 176 179 174 166 163 159 155 154 153 155 157 154 155 162 170 174 176 183 190 187 185 188 192 192 180 172 177 182 185 187 190 192 194 200 209 213 211 207
134 132 100 87 304 11 26 289 37 192 250 253 207 165 158 229 248 250 269 287 282 261 251 242 227 209 200 194 192 193 195 197 198 200 203 200 195 194 194 193 194 196 195 189 185 184 182 181 181 180 179 178 178 178 179 180 178 174 174 178 183 178 166 162 158 152 150 148 145 138 122 120 133 142 153 161 164 176 186 192 198 199 185 169 163 165 174 183 187 190 195 198 204 210 211 209 207
151 157 145 143 155 80 261 262 297 253 266 264 194 186 246 266 261 247 267 287 287 276 269 262 242 214 201 193 192 194 195 198 199 200 203 201 196 195 196 196 196 196 195 192 188 186 184 182 181 182 182 181 179 179 179 180 180 177 178 183 186 181 171 164 161 158 154 149 143 122 94 92 102 107 118 147 161 163 169 180 192 196 187 177 172 165 167 180 185 186 190 195 199 202 203 200 198
170 165 141 150 164 157 208 220 196 240 271 310 231 181 187 218 251 252 264 296 318 309 271 247 226 204 193 189 191 195 197 199 201 202 203 202 199 197 198 198 198 197 196 194 191 188 187 185 184 185 185 182 180 180 180 179 178 178 179 185 188 183 177 170 165 168 164 157 147 119 94 89 89 85 76 83 187 169 152 160 178 183 186 191 193 185 184 193 193 190 191 195 200 202 201 197 195
209 145 110 171 189 155 151 191 176 184 262 327 244 214 220 217 263 292 303 330 349 347 280 188 175 180 179 181 188 194 197 200 203 202 201 203 202 200 200 200 199 198 196 196 193 190 189 188 187 187 186 184 182 181 179 175 174 175 178 184 185 179 178 173 168 172 173 165 150 122 105 88 85 77 57 77 168 167 153 165 175 177 189 204 208 209 216 215 194 191 194 197 198 197 197 199 200
193 129 172 221 176 129 118 205 112 82 160 269 253 257 301 325 292 313 353 15 8 3 360 143 152 166 172 178 186 191 196 200 203 200 198 202 203 202 201 201 201 199 196 196 195 192 189 189 188 187 186 186 184 182 178 175 174 175 177 178 177 175 173 170 169 174 175 171 160 139 125 102 89 73 44 86 140 159 157 172 183 181 193 205 211 220 223 202 183 184 188 190 188 191 198 202 202
127 183 207 190 96 90 112 170 10 45 215 271 322 244 292 333 232 309 2 15 7 9 7 28 119 155 165 172 179 185 190 194 199 198 197 203 206 202 200 200 202 200 197 197 196 193 191 190 189 187 186 186 185 182 180 178 178 177 176 173 170 172 171 170 174 177 177 177 163 145 138 123 87 50 33 83 125 152 160 183 193 169 164 175 184 195 191 179 178 180 181 184 184 187 193 199 199
144 186 170 121 138 233 93 152 173 140 219 286 319 293 252 201 224 315 21 3 347 13 19 16 40 67 93 161 177 186 191 193 198 198 197 202 204 200 198 200 202 201 198 197 197 196 194 192 190 187 186 186 185 184 185 186 184 179 177 175 173 177 176 175 178 178 179 177 162 145 147 146 72 20 19 56 103 141 163 191 179 149 140 141 147 152 155 160 171 177 181 187 181 172 176 184 182
22 114 122 76 143 171 169 159 166 170 183 247 308 328 280 222 222 254 283 301 336 28 28 30 42 39 35 86 180 193 199 202 204 201 200 203 204 200 199 201 202 200 199 199 199 199 198 194 190 187 188 187 186 188 189 190 188 182 181 183 183 185 182 179 178 175 176 173 160 153 160 165 185 349 1 16 127 142 154 166 154 141 140 141 139 143 151 158 166 173 171 170 165 158 161 167 162
97 140 194 271 81 141 166 106 92 128 152 179 192 289 270 246 224 239 247 253 163 105 71 52 49 48 43 45 128 180 195 201 195 190 193 200 197 193 195 201 203 201 200 202 202 200 198 194 191 189 188 188 188 188 188 189 187 183 186 191 191 188 185 182 178 172 172 171 164 164 169 175 207 294 306 215 179 162 154 152 148 142 143 145 139 135 141 147 154 162 160 158 156 150 150 157 156
175 167 181 185 143 130 146 271 311 89 126 165 160 219 268 263 263 265 250 244 204 123 104 82 64 67 68 63 70 94 108 103 132 157 170 172 161 168 185 200 204 207 207 205 202 201 199 197 195 193 189 190 190 187 185 186 183 181 187 193 192 186 183 182 180 176 175 174 171 172 173 181 211 255 233 199 184 178 168 157 152 149 146 144 138 128 126 128 138 157 162 161 158 149 151 159 156